Location: S�tio Afonso Gruber
(26.1760°S, 49.5250°W)
Time: 22:19:28
(UTC+00:00)

NANOSAT C BR1 - Pass Details

Date: 05 December 2022
Orbit: 579 x 594 km, 98.0° (Epoch: 06 February)

Event Time Altitude Azimuth Distance (km) Brightness Sun altitude
Exits shadow 04:16:47 10° 149° (SSE) 1,882 ? -38.7°
Drops below altitude 10° 04:16:54 10° 151° (SSE) 1,913 ? -38.7°
Sets 04:19:39 0° 170° (S) 2,822 ? -38.5°
